• en France
  • Liste des pays
  • À 7 jours
  • Température de l'eau
  • Carte satellitaire
  • Carte météo
  • Widgets météo
  • user-avatar
    Se connecter

    Météo par heure à Maurice

    Ce jour, 15 Novembre, Jeudi

    Heure Température Précipitation Vent Pression Humidité
    00:00 +23°C° 0.1 mm 5 m/s 725 mmHg 82%
    01:00 +23°C° 0.1 mm 5 m/s 724 mmHg 82%
    02:00 +23°C° 0 mm 5 m/s 724 mmHg 83%
    03:00 +23°C° 0 mm 5 m/s 724 mmHg 83%
    04:00 +23°C° 0 mm 5 m/s 724 mmHg 84%
    05:00 +23°C° 0.1 mm 5 m/s 724 mmHg 83%
    06:00 +23°C° 0.1 mm 5 m/s 725 mmHg 82%
    07:00 +23°C° 0.1 mm 5 m/s 725 mmHg 81%
    08:00 +23°C° 0.6 mm 5 m/s 725 mmHg 80%
    09:00 +23°C° 0.6 mm 5 m/s 725 mmHg 80%
    10:00 +25°C° 0 mm 5 m/s 725 mmHg 80%
    11:00 +25°C° 0.6 mm 5 m/s 725 mmHg 81%
    12:00 +25°C° 0.6 mm 5 m/s 725 mmHg 81%
    13:00 +25°C° 0.6 mm 5 m/s 725 mmHg 81%
    14:00 +23°C° 0.6 mm 6 m/s 725 mmHg 82%
    15:00 +23°C° 0.6 mm 6 m/s 725 mmHg 83%
    16:00 +23°C° 0 mm 6 m/s 724 mmHg 84%
    17:00 +23°C° 0.6 mm 6 m/s 725 mmHg 84%
    18:00 +23°C° 0.6 mm 6 m/s 725 mmHg 85%
    19:00 +23°C° 0.6 mm 6 m/s 725 mmHg 86%
    20:00 +23°C° 0.8 mm 7 m/s 725 mmHg 86%
    21:00 +23°C° 0.8 mm 7 m/s 726 mmHg 86%
    22:00 +23°C° 0.8 mm 7 m/s 726 mmHg 85%
    23:00 +23°C° 0.5 mm 7 m/s 726 mmHg 85%

    Demain, 16 Novembre, Vendredi

    Heure Température Précipitation Vent Pression Humidité
    00:00 +23°C° 0.5 mm 7 m/s 726 mmHg 85%
    01:00 +23°C° 0.5 mm 7 m/s 726 mmHg 85%
    02:00 +23°C° 0.4 mm 7 m/s 726 mmHg 85%
    03:00 +23°C° 0.4 mm 7 m/s 725 mmHg 84%
    04:00 +23°C° 0.4 mm 7 m/s 725 mmHg 84%
    05:00 +23°C° 0.2 mm 7 m/s 725 mmHg 83%
    06:00 +23°C° 0.2 mm 7 m/s 726 mmHg 81%
    07:00 +23°C° 0.2 mm 7 m/s 726 mmHg 80%
    08:00 +23°C° 0 mm 7 m/s 726 mmHg 77%
    09:00 +24°C° 0 mm 7 m/s 726 mmHg 74%
    10:00 +24°C° 0 mm 7 m/s 726 mmHg 70%
    11:00 +26°C° 0 mm 7 m/s 726 mmHg 69%
    12:00 +26°C° 0 mm 7 m/s 726 mmHg 68%
    13:00 +26°C° 0 mm 7 m/s 726 mmHg 66%
    14:00 +26°C° 0 mm 7 m/s 726 mmHg 68%
    15:00 +26°C° 0 mm 7 m/s 726 mmHg 69%
    16:00 +24°C° 0 mm 7 m/s 725 mmHg 71%
    17:00 +24°C° 0 mm 7 m/s 726 mmHg 72%
    18:00 +24°C° 0 mm 7 m/s 726 mmHg 73%
    19:00 +23°C° 0 mm 7 m/s 726 mmHg 74%
    20:00 +23°C° 0 mm 7 m/s 726 mmHg 75%
    21:00 +23°C° 0 mm 7 m/s 726 mmHg 76%
    22:00 +23°C° 0 mm 7 m/s 727 mmHg 77%
    23:00 +23°C° 0 mm 7 m/s 726 mmHg 78%

    Après-demain, 17 Novembre, Samedi

    Heure Température Précipitation Vent Pression Humidité
    00:00 +23°C° 0 mm 7 m/s 726 mmHg 79%
    01:00 +23°C° 0 mm 6 m/s 726 mmHg 80%
    02:00 +23°C° 0 mm 6 m/s 725 mmHg 79%
    03:00 +23°C° 0 mm 6 m/s 725 mmHg 79%
    04:00 +23°C° 0 mm 6 m/s 725 mmHg 79%
    05:00 +23°C° 0 mm 7 m/s 725 mmHg 79%
    06:00 +23°C° 0 mm 7 m/s 725 mmHg 79%
    07:00 +23°C° 0 mm 7 m/s 725 mmHg 78%
    08:00 +23°C° 0 mm 7 m/s 725 mmHg 76%
    09:00 +24°C° 0 mm 7 m/s 726 mmHg 74%
    10:00 +24°C° 0 mm 7 m/s 726 mmHg 71%
    11:00 +26°C° 0 mm 7 m/s 725 mmHg 70%
    12:00 +26°C° 0 mm 7 m/s 725 mmHg 69%
    13:00 +26°C° 0 mm 6 m/s 725 mmHg 69%
    14:00 +26°C° 0 mm 7 m/s 725 mmHg 69%
    15:00 +26°C° 0 mm 7 m/s 724 mmHg 70%
    16:00 +24°C° 0 mm 7 m/s 724 mmHg 71%
    17:00 +24°C° 0 mm 7 m/s 724 mmHg 73%
    18:00 +24°C° 0 mm 7 m/s 724 mmHg 74%
    19:00 +23°C° 0 mm 7 m/s 725 mmHg 76%
    20:00 +23°C° 0 mm 7 m/s 725 mmHg 76%
    21:00 +23°C° 0 mm 7 m/s 725 mmHg 76%
    22:00 +23°C° 0 mm 7 m/s 726 mmHg 76%
    23:00 +23°C° 0 mm 7 m/s 725 mmHg 77%

    18 Novembre, Dimanche

    Heure Température Précipitation Vent Pression Humidité
    00:00 +22°C° 0 mm 7 m/s 725 mmHg 78%
    01:00 +22°C° 0 mm 6 m/s 724 mmHg 79%
    02:00 +22°C° 0 mm 6 m/s 724 mmHg 80%
    03:00 +22°C° 0 mm 6 m/s 724 mmHg 80%
    04:00 +22°C° 0 mm 6 m/s 724 mmHg 81%
    05:00 +22°C° 0 mm 6 m/s 724 mmHg 80%
    06:00 +22°C° 0 mm 6 m/s 724 mmHg 79%
    07:00 +23°C° 0 mm 6 m/s 724 mmHg 79%
    08:00 +23°C° 0 mm 6 m/s 725 mmHg 76%
    09:00 +24°C° 0 mm 6 m/s 725 mmHg 74%
    10:00 +24°C° 0 mm 6 m/s 725 mmHg 71%
    11:00 +26°C° 0 mm 6 m/s 724 mmHg 70%
    12:00 +26°C° 0 mm 6 m/s 724 mmHg 69%
    13:00 +26°C° 0 mm 6 m/s 724 mmHg 68%
    14:00 +26°C° 0.1 mm 6 m/s 723 mmHg 69%
    15:00 +26°C° 0.1 mm 5 m/s 723 mmHg 69%
    16:00 +26°C° 0.1 mm 5 m/s 723 mmHg 69%
    17:00 +25°C° 0.1 mm 5 m/s 723 mmHg 72%
    18:00 +25°C° 0.1 mm 5 m/s 723 mmHg 74%
    19:00 +25°C° 0.1 mm 5 m/s 723 mmHg 76%
    20:00 +23°C° 0 mm 5 m/s 724 mmHg 78%
    21:00 +23°C° 0 mm 5 m/s 724 mmHg 79%
    22:00 +23°C° 0 mm 5 m/s 725 mmHg 80%
    23:00 +23°C° 0 mm 5 m/s 724 mmHg 81%

    19 Novembre, Lundi

    Heure Température Précipitation Vent Pression Humidité
    00:00 +23°C° 0 mm 4 m/s 724 mmHg 81%
    01:00 +23°C° 0 mm 4 m/s 723 mmHg 81%
    02:00 +23°C° 0.1 mm 4 m/s 723 mmHg 81%
    03:00 +23°C° 0.1 mm 4 m/s 723 mmHg 80%
    04:00 +23°C° 0.1 mm 4 m/s 723 mmHg 80%
    05:00 +23°C° 0 mm 4 m/s 723 mmHg 79%
    06:00 +23°C° 0 mm 4 m/s 724 mmHg 77%
    07:00 +23°C° 0 mm 4 m/s 724 mmHg 75%
    08:00 +25°C° 0 mm 4 m/s 724 mmHg 71%
    09:00 +26°C° 0 mm 4 m/s 725 mmHg 67%
    10:00 +27°C° 0 mm 4 m/s 725 mmHg 63%
    11:00 +27°C° 0.1 mm 4 m/s 724 mmHg 62%
    12:00 +28°C° 0.1 mm 4 m/s 724 mmHg 61%
    13:00 +28°C° 0.1 mm 4 m/s 724 mmHg 60%
    14:00 +27°C° 0.3 mm 4 m/s 724 mmHg 62%
    15:00 +27°C° 0.3 mm 4 m/s 723 mmHg 64%
    16:00 +27°C° 0.3 mm 4 m/s 723 mmHg 66%
    17:00 +26°C° 0.4 mm 4 m/s 723 mmHg 69%
    18:00 +26°C° 0.4 mm 4 m/s 724 mmHg 72%
    19:00 +25°C° 0.4 mm 4 m/s 724 mmHg 75%
    20:00 +25°C° 0.2 mm 5 m/s 725 mmHg 76%
    21:00 +25°C° 0.2 mm 5 m/s 725 mmHg 77%
    22:00 +25°C° 0.2 mm 5 m/s 725 mmHg 79%
    23:00 +25°C° 0 mm 5 m/s 725 mmHg 79%

    20 Novembre, Mardi

    Heure Température Précipitation Vent Pression Humidité
    00:00 +23°C° 0 mm 4 m/s 725 mmHg 80%
    01:00 +23°C° 0 mm 4 m/s 724 mmHg 81%
    02:00 +23°C° 0.2 mm 5 m/s 724 mmHg 81%
    03:00 +23°C° 0.2 mm 5 m/s 724 mmHg 82%
    04:00 +23°C° 0.2 mm 5 m/s 724 mmHg 82%
    05:00 +23°C° 0.3 mm 5 m/s 724 mmHg 81%
    06:00 +25°C° 0.3 mm 5 m/s 724 mmHg 80%
    07:00 +24°C° 0.3 mm 6 m/s 725 mmHg 78%
    08:00 +24°C° 0.1 mm 6 m/s 725 mmHg 76%
    09:00 +26°C° 0.1 mm 6 m/s 725 mmHg 73%
    10:00 +27°C° 0.1 mm 6 m/s 725 mmHg 70%
    11:00 +27°C° 0.1 mm 6 m/s 725 mmHg 69%
    12:00 +27°C° 0.1 mm 6 m/s 725 mmHg 69%
    13:00 +27°C° 0.1 mm 6 m/s 724 mmHg 68%
    14:00 +27°C° 0.3 mm 6 m/s 724 mmHg 69%
    15:00 +27°C° 0.3 mm 6 m/s 724 mmHg 70%
    16:00 +27°C° 0.3 mm 6 m/s 724 mmHg 71%
    17:00 +26°C° 0 mm 6 m/s 724 mmHg 73%
    18:00 +26°C° 0 mm 6 m/s 725 mmHg 76%
    19:00 +24°C° 0 mm 7 m/s 725 mmHg 78%
    20:00 +24°C° 0.1 mm 7 m/s 725 mmHg 78%
    21:00 +24°C° 0.1 mm 7 m/s 726 mmHg 79%
    22:00 +24°C° 0.1 mm 7 m/s 726 mmHg 79%
    23:00 +24°C° 0.1 mm 7 m/s 726 mmHg 79%
    Voir plus